Regional Weather Roundup
Issued by NWS

Home | Current Version | Previous Version | Graphics & Text | Print | Product List | Glossary On
Versions: 1 2 3 4 5 6 7 8 9 10 11 12 13 14 15 16 17 18 19 20 21 22 23 24 25 26 27 28 29 30 31 32 33 34 35 36 37 38 39 40 41 42 43 44 45
000
ASUS45 KCYS 241210
RWRWY

WYOMING REGIONAL WEATHER ROUNDUP
NATIONAL WEATHER SERVICE CHEYENNE WY
500 AM MST WED DEC 24 2014

NOTE:  "FAIR" INDICATES FEW OR NO CLOUDS BELOW 12,000 FEET
WITH NO SIGNIFICANT WEATHER AND/OR OBSTRUCTIONS TO VISIBILITY.

WYZ001-241300-
YELLOWSTONE NATIONAL PARK

CITY           SKY/WX    TMP DP  RH WIND       PRES   REMARKS
LK YELLOWSTONE   N/A     14  11  87 CALM      30.01F
6HR MIN TEMP:  14; 6HR MAX TEMP:  18;

W YELLOWSTONE  NOT AVBL

$$
WYZ002>013-054>058-071-098>099-241300-
NORTHERN WYOMING

CITY           SKY/WX    TMP DP  RH WIND       PRES   REMARKS
JACKSON        MOCLDY     9   7  92 N6        30.05F WCI  -1
CODY           FAIR      37  18  44 W15G33    29.82F WCI  28
GREYBULL       FAIR      15  12  88 SE5       29.92F WCI   8
6HR MIN TEMP:  14; 6HR MAX TEMP:  21;

WORLAND        FAIR       8   4  83 SW3       29.92F
6HR MIN TEMP:   1; 6HR MAX TEMP:  11;

SHERIDAN       FAIR      20  14  77 S7        29.76F WCI  11
6HR MIN TEMP:  17; 6HR MAX TEMP:  26;

BUFFALO        FAIR      29  13  51 NW3       29.76F
6HR MIN TEMP:  21; 6HR MAX TEMP:  31;

GILLETTE       FAIR      30  15  53 SW16      29.77F WCI  19
6HR MIN TEMP:  25; 6HR MAX TEMP:  30;

HULETT           N/A    N/A N/A N/A MISG        N/A
NEWCASTLE      FAIR      12  10  92 CALM      29.87S

$$
WYZ014>020-022>026-101>103-241300-
CENTRAL WYOMING

CITY           SKY/WX    TMP DP  RH WIND       PRES   REMARKS
BIG PINEY      FAIR       3  -1  83 N6        30.06F WCI  -8
6HR MIN TEMP:   3; 6HR MAX TEMP:  18;

PINEDALE       FAIR       5   3  92 CALM      30.07F
DUBOIS         NOT AVBL
LANDER         FAIR      16   6  65 CALM      29.89F
6HR MIN TEMP:  11; 6HR MAX TEMP:  22;

RIVERTON       FAIR      16   7  67 SE6       29.91F WCI   7
6HR MIN TEMP:  10; 6HR MAX TEMP:  19;

CASPER         FAIR      23  12  62 SW24G38   29.90F WCI   7
6HR MIN TEMP:  21; 6HR MAX TEMP:  23;

DOUGLAS        FAIR      18  11  74 N7        29.87S WCI   9
6HR MIN TEMP:   9; 6HR MAX TEMP:  18;


$$
WYZ021-027>030-104>119-241300-
SOUTHERN WYOMING

CITY           SKY/WX    TMP DP  RH WIND       PRES   REMARKS
EVANSTON       FAIR      15   8  73 SW12      30.11F WCI   2
6HR MIN TEMP:  13; 6HR MAX TEMP:  16;

FORT BRIDGER   FAIR      22   9  56 W15       30.11F WCI   9
ROCK SPRINGS   FAIR      21  10  62 SW7       30.07F WCI  12
6HR MIN TEMP:  18; 6HR MAX TEMP:  22;

DIXON          FAIR       9   3  76 SE3       30.18S
RAWLINS        FAIR      21  10  62 VRB5      30.03R WCI  15
6HR MIN TEMP:  15; 6HR MAX TEMP:  21;

SARATOGA       FAIR      12   5  73 S13       30.07S WCI  -3
LARAMIE        FAIR      12   4  70 SW5       29.92F WCI   4
6HR MIN TEMP:   1; 6HR MAX TEMP:  15;

CHEYENNE       FAIR      20   6  55 W10G18    29.86F WCI   9
6HR MIN TEMP:  11; 6HR MAX TEMP:  20;

TORRINGTON     FAIR       9   5  84 E5        29.89F WCI   1
6HR MIN TEMP:   9; 6HR MAX TEMP:  22;

PINE BLUFFS    FAIR      19   9  63 W8        29.90F WCI   9

$$



USA.gov is the U.S. government's official web portal to all federal, state and local government web resources and services.